[[{"header":{"parameterUnit":"m.s-1","parameterCategory":2,"la1":30.2992,"la2":30.254,"lo1":-89.0895,"lo2":-89.0443,"dy":0.0025,"dx":0.0025,"nx":19,"ny":19,"refTime":"2026-03-18T03:00:00:Z","depth":"0","parameterNumber":2,"parameterNumberName":"U-component_of_CURRENTS"},"data":[0,0,0,-0.1431,-0.1432,-0.143,-0.143,-0.1381,-0.1381,0,0,0,0,0,0,0,0,0,0,0,-0.1419,-0.1419,-0.1431,-0.1432,-0.143,-0.143,-0.1381,-0.1381,0,0,0,0,0,0,0,0,0,0,0,-0.1419,-0.1419,-0.142,-0.1432,-0.143,-0.143,-0.1381,-0.1389,0,0,0,0,0,0,0,0,0,0,-0.1394,-0.1394,-0.1419,-0.142,-0.1432,-0.143,-0.143,-0.139,-0.1388,-0.1375,0,-0.1382,0,-0.1395,-0.1378,-0.1378,0,0,0,-0.141,-0.1395,-0.1405,-0.142,-0.1433,-0.143,-0.1425,-0.1389,-0.1388,-0.1374,-0.1382,-0.1381,-0.1394,-0.1378,-0.1378,-0.1389,-0.1389,0,0,-0.1411,-0.1405,-0.1406,-0.1404,-0.144,-0.1425,-0.1425,-0.1389,-0.1384,-0.1382,-0.138,-0.1393,-0.1378,-0.1378,-0.1389,-0.1389,0,0,0,-0.1425,-0.1405,-0.1416,-0.1406,-0.1417,-0.1425,-0.1425,-0.1384,-0.1392,-0.138,-0.1393,-0.1378,-0.1377,-0.1388,-0.1389,-0.1435,0,0,0,-0.1424,-0.1416,-0.1417,-0.1411,-0.1418,-0.1407,-0.1422,-0.1393,-0.1391,-0.1393,-0.1378,-0.1377,-0.1388,-0.1389,-0.1433,-0.1429,0,0,0,-0.1418,-0.1415,-0.142,-0.1412,-0.1423,-0.1409,-0.1412,-0.1393,-0.1399,-0.1378,-0.1377,-0.1388,-0.1389,-0.1431,-0.1426,-0.1484,0,0,0,-0.1405,-0.1417,-0.142,-0.1438,-0.1424,-0.145,-0.1413,-0.1419,-0.1406,-0.1377,-0.1388,-0.1389,-0.1431,-0.1425,-0.1482,-0.1515,-0.1527,0,0,-0.1416,-0.1418,-0.1431,-0.1435,-0.1459,-0.1448,-0.1473,-0.144,-0.1413,-0.1392,-0.1392,-0.1434,-0.1426,-0.1483,-0.1567,-0.1579,0,0,0,-0.1432,-0.1431,-0.1443,-0.1455,-0.1479,-0.1487,-0.1475,-0.1476,-0.146,-0.1415,-0.144,-0.1433,-0.1468,-0.1483,-0.1492,-0.1475,-0.1393,-0.1393,-0.1393,-0.1397,-0.1423,-0.1434,-0.1461,-0.1483,-0.1514,-0.1528,-0.1522,-0.1498,-0.1507,-0.1476,-0.1553,-0.1571,-0.1578,-0.1559,-0.1495,-0.1495,-0.1495,-0.1495,-0.1377,-0.1369,-0.141,-0.1427,-0.1465,-0.1485,-0.1544,-0.1551,-0.1579,-0.1535,-0.1568,-0.1537,-0.1591,-0.1567,-0.1499,-0.1498,-0.1498,-0.1497,-0.1497,-0.1317,-0.1317,-0.1339,-0.1363,-0.1398,-0.1453,-0.1521,-0.1555,-0.1594,-0.1625,-0.165,-0.165,-0.1625,-0.1647,-0.1648,-0.1648,-0.1648,-0.1648,-0.1648,-0.1232,-0.1261,-0.1256,-0.1295,-0.1314,-0.1374,-0.1495,-0.1572,-0.1666,-0.1689,-0.169,-0.1651,-0.1599,-0.1589,-0.1652,-0.1652,-0.1651,-0.1651,-0.165,-0.1134,-0.1158,-0.1153,-0.1169,-0.1238,-0.1306,-0.1453,-0.165,-0.1742,-0.1803,-0.1766,-0.1744,-0.1732,-0.1724,-0.1717,-0.181,-0.181,-0.181,-0.181,-0.1055,-0.107,-0.1067,-0.1091,-0.1154,-0.1271,-0.145,-0.1644,-0.1788,-0.1813,-0.1821,-0.179,-0.1784,-0.1772,-0.1763,-0.1755,-0.1856,-0.1856,-0.1856,-0.0979,-0.1002,-0.0977,-0.1029,-0.1109,-0.1246,-0.1398,-0.1612,-0.18,-0.1853,-0.1792,-0.179,-0.1737,-0.1729,-0.17,-0.169,-0.1672,0,0]},{"header":{"parameterUnit":"m.s-1","parameterCategory":2,"la1":30.2992,"la2":30.254,"lo1":-89.0895,"lo2":-89.0443,"dy":0.0025,"dx":0.0025,"nx":19,"ny":19,"refTime":"2026-03-18T03:00:00:Z","depth":"0","parameterNumber":3,"parameterNumberName":"V-component_of_CURRENTS"},"data":[0,0,0,-0.0577,-0.0576,-0.0574,-0.0574,-0.0584,-0.0584,0,0,0,0,0,0,0,0,0,0,0,-0.0591,-0.0591,-0.0577,-0.0576,-0.0574,-0.0574,-0.0584,-0.0584,0,0,0,0,0,0,0,0,0,0,0,-0.059,-0.0591,-0.0591,-0.0576,-0.0574,-0.0574,-0.0584,-0.0585,0,0,0,0,0,0,0,0,0,0,-0.0587,-0.0587,-0.0591,-0.0591,-0.0576,-0.0574,-0.0574,-0.0585,-0.0585,-0.0585,0,-0.0586,0,-0.0574,-0.0584,-0.0584,0,0,0,-0.0588,-0.0587,-0.0589,-0.0591,-0.0576,-0.0574,-0.0578,-0.0585,-0.0585,-0.0585,-0.0586,-0.0586,-0.0575,-0.0584,-0.0584,-0.0552,-0.0551,0,0,-0.0588,-0.0587,-0.0589,-0.0589,-0.0577,-0.0578,-0.0578,-0.0585,-0.0584,-0.0586,-0.0586,-0.0575,-0.0584,-0.0584,-0.0552,-0.0551,0,0,0,-0.0581,-0.0587,-0.0589,-0.0589,-0.0581,-0.0578,-0.0578,-0.0584,-0.0586,-0.0586,-0.0575,-0.0584,-0.0584,-0.0552,-0.0552,-0.0521,0,0,0,-0.0581,-0.0582,-0.0589,-0.0588,-0.0581,-0.0578,-0.0577,-0.0586,-0.0586,-0.0575,-0.0584,-0.0584,-0.0553,-0.0552,-0.0523,-0.0516,0,0,0,-0.059,-0.0582,-0.0584,-0.0588,-0.0581,-0.0578,-0.058,-0.0586,-0.0578,-0.0584,-0.0584,-0.0553,-0.0552,-0.0524,-0.0518,-0.0516,0,0,0,-0.0588,-0.0579,-0.0584,-0.057,-0.0581,-0.0573,-0.058,-0.0579,-0.0584,-0.0584,-0.0553,-0.0552,-0.0525,-0.0519,-0.0517,-0.0574,-0.0573,0,0,-0.0572,-0.0577,-0.0568,-0.0572,-0.0554,-0.0574,-0.0555,-0.0567,-0.0569,-0.0554,-0.0554,-0.0522,-0.0518,-0.0516,-0.0527,-0.0528,0,0,0,-0.056,-0.0555,-0.0552,-0.0542,-0.0543,-0.0539,-0.055,-0.0543,-0.0526,-0.0565,-0.0514,-0.0513,-0.0513,-0.0549,-0.0549,-0.0394,-0.0548,-0.0548,-0.0548,-0.0533,-0.0532,-0.0521,-0.0521,-0.0517,-0.0515,-0.0503,-0.0494,-0.0509,-0.0487,-0.0482,-0.0451,-0.0488,-0.0489,-0.0327,-0.0471,-0.0471,-0.0471,-0.0471,-0.0513,-0.0514,-0.0506,-0.0498,-0.0493,-0.0482,-0.0458,-0.0454,-0.0426,-0.0439,-0.044,-0.0507,-0.0488,-0.0315,-0.0469,-0.0469,-0.047,-0.047,-0.047,-0.051,-0.0514,-0.0506,-0.0496,-0.0482,-0.0474,-0.0478,-0.0442,-0.0405,-0.0391,-0.0459,-0.046,-0.0316,-0.0406,-0.0406,-0.0406,-0.0406,-0.0406,-0.0406,-0.0521,-0.0514,-0.0517,-0.0505,-0.0511,-0.0517,-0.0496,-0.0491,-0.046,-0.0434,-0.0435,-0.0282,-0.0432,-0.0443,-0.0405,-0.0405,-0.0405,-0.0405,-0.0405,-0.0527,-0.0531,-0.054,-0.0549,-0.0585,-0.0662,-0.0625,-0.0624,-0.0572,-0.0561,-0.0289,-0.0458,-0.0479,-0.0479,-0.0492,-0.0469,-0.0469,-0.0469,-0.0469,-0.0536,-0.0537,-0.0571,-0.0616,-0.0678,-0.0739,-0.086,-0.08,-0.0514,-0.0328,-0.0222,-0.0216,-0.022,-0.0224,-0.023,-0.0237,-0.0149,-0.0148,-0.0147,-0.0536,-0.0551,-0.0586,-0.0643,-0.0733,-0.0859,-0.1011,-0.0958,-0.043,-0.0113,0.0016,0.0002,0.0035,0.0015,0.0022,0.0,-0.0008,0,0]}],[{"header":{"parameterUnit":"m.s-1","parameterCategory":2,"la1":30.2992,"la2":30.254,"lo1":-89.0895,"lo2":-89.0443,"dy":0.0025,"dx":0.0025,"nx":19,"ny":19,"refTime":"2026-03-18T03:00:00:Z","depth":"2","parameterNumber":2,"parameterNumberName":"U-component_of_CURRENTS"},"data":[0,0,0,-0.137,-0.137,-0.1364,-0.1363,-0.1332,-0.1332,0,0,0,0,0,0,0,0,0,0,0,-0.1361,-0.1361,-0.137,-0.137,-0.1364,-0.1363,-0.1332,-0.1332,0,0,0,0,0,0,0,0,0,0,0,-0.1361,-0.1361,-0.1361,-0.137,-0.1364,-0.1363,-0.1332,-0.1338,0,0,0,0,0,0,0,0,0,0,-0.1346,-0.1345,-0.1361,-0.1361,-0.1371,-0.1364,-0.1363,-0.1338,-0.1338,-0.1334,0,-0.1338,0,-0.1347,-0.1331,-0.1331,0,0,0,-0.1352,-0.1345,-0.1352,-0.1361,-0.1371,-0.1364,-0.1361,-0.1338,-0.1337,-0.1333,-0.1338,-0.1337,-0.1347,-0.1331,-0.133,-0.1355,-0.1356,0,0,-0.1352,-0.135,-0.1353,-0.1352,-0.1376,-0.1362,-0.1361,-0.1338,-0.1334,-0.1338,-0.1337,-0.1346,-0.133,-0.133,-0.1355,-0.1356,0,0,0,-0.1366,-0.135,-0.1356,-0.1352,-0.1361,-0.1362,-0.1362,-0.1335,-0.134,-0.1337,-0.1346,-0.133,-0.133,-0.1355,-0.1355,-0.1399,0,0,0,-0.1365,-0.1359,-0.1357,-0.1354,-0.1361,-0.1351,-0.1359,-0.1341,-0.1339,-0.1346,-0.133,-0.133,-0.1354,-0.1355,-0.1397,-0.138,0,0,0,-0.136,-0.1359,-0.1362,-0.1354,-0.1362,-0.1352,-0.1354,-0.134,-0.1346,-0.1331,-0.133,-0.1354,-0.1355,-0.1395,-0.1378,-0.1431,0,0,0,-0.1352,-0.1364,-0.1362,-0.1379,-0.1362,-0.1386,-0.1355,-0.1363,-0.1355,-0.133,-0.1354,-0.1355,-0.1395,-0.1377,-0.143,-0.1444,-0.1454,0,0,-0.1365,-0.1365,-0.1377,-0.1376,-0.1396,-0.1385,-0.1412,-0.1388,-0.1366,-0.1356,-0.1357,-0.1398,-0.1378,-0.1431,-0.1496,-0.1504,0,0,0,-0.1381,-0.1377,-0.1388,-0.1394,-0.1417,-0.1423,-0.1418,-0.1423,-0.1415,-0.1369,-0.1404,-0.1389,-0.1422,-0.1427,-0.1434,-0.1359,-0.1359,-0.1359,-0.1359,-0.1347,-0.1369,-0.1376,-0.1399,-0.142,-0.1451,-0.1464,-0.1465,-0.1453,-0.1464,-0.1432,-0.1503,-0.151,-0.1515,-0.1457,-0.1458,-0.1458,-0.1458,-0.1458,-0.1324,-0.1312,-0.1348,-0.1362,-0.1396,-0.1418,-0.1477,-0.149,-0.1521,-0.1487,-0.1519,-0.1479,-0.1525,-0.1462,-0.1461,-0.146,-0.146,-0.146,-0.146,-0.1259,-0.1259,-0.1279,-0.1298,-0.1327,-0.1382,-0.1442,-0.1481,-0.1526,-0.1554,-0.1573,-0.1572,-0.1522,-0.1583,-0.1583,-0.1583,-0.1583,-0.1583,-0.1583,-0.1174,-0.1201,-0.1195,-0.1229,-0.1245,-0.1298,-0.1412,-0.1484,-0.1572,-0.1597,-0.1598,-0.1545,-0.1541,-0.153,-0.1586,-0.1586,-0.1585,-0.1585,-0.1585,-0.1074,-0.1099,-0.1092,-0.1106,-0.1166,-0.122,-0.1361,-0.1537,-0.1626,-0.1678,-0.1645,-0.1642,-0.1627,-0.1621,-0.1611,-0.1686,-0.1686,-0.1686,-0.1686,-0.0994,-0.101,-0.1006,-0.1026,-0.1079,-0.1181,-0.1327,-0.1479,-0.1607,-0.1615,-0.1617,-0.1587,-0.1585,-0.1564,-0.1559,-0.1547,-0.1605,-0.1605,-0.1604,-0.0917,-0.0941,-0.0915,-0.0965,-0.1032,-0.1147,-0.1255,-0.136,-0.1474,-0.1595,-0.1545,-0.1692,-0.1654,-0.1648,-0.1619,-0.161,-0.1592,0,0]},{"header":{"parameterUnit":"m.s-1","parameterCategory":2,"la1":30.2992,"la2":30.254,"lo1":-89.0895,"lo2":-89.0443,"dy":0.0025,"dx":0.0025,"nx":19,"ny":19,"refTime":"2026-03-18T03:00:00:Z","depth":"2","parameterNumber":3,"parameterNumberName":"V-component_of_CURRENTS"},"data":[0,0,0,-0.0231,-0.023,-0.0209,-0.0208,-0.0238,-0.0239,0,0,0,0,0,0,0,0,0,0,0,-0.0257,-0.0258,-0.0231,-0.023,-0.0209,-0.0208,-0.0238,-0.0239,0,0,0,0,0,0,0,0,0,0,0,-0.0257,-0.0257,-0.0258,-0.023,-0.0209,-0.0208,-0.0238,-0.024,0,0,0,0,0,0,0,0,0,0,-0.0254,-0.0266,-0.0257,-0.0258,-0.023,-0.0209,-0.0208,-0.0239,-0.024,-0.0265,0,-0.0276,0,-0.0253,-0.0242,-0.0242,0,0,0,-0.0229,-0.0266,-0.0262,-0.0258,-0.023,-0.0209,-0.0218,-0.0239,-0.024,-0.0266,-0.0277,-0.0277,-0.0253,-0.0242,-0.0243,-0.0271,-0.0271,0,0,-0.023,-0.0249,-0.0261,-0.0263,-0.0245,-0.0219,-0.0217,-0.0239,-0.0249,-0.0277,-0.0277,-0.0254,-0.0243,-0.0243,-0.0271,-0.0271,0,0,0,-0.0235,-0.025,-0.0244,-0.0263,-0.0251,-0.0218,-0.0217,-0.0248,-0.0247,-0.0277,-0.0254,-0.0243,-0.0244,-0.0272,-0.0271,-0.0249,0,0,0,-0.0235,-0.0252,-0.0245,-0.0255,-0.0251,-0.0239,-0.0226,-0.0246,-0.0247,-0.0254,-0.0243,-0.0244,-0.0272,-0.0271,-0.0249,-0.0248,0,0,0,-0.0254,-0.0253,-0.0258,-0.0256,-0.0244,-0.0238,-0.0238,-0.0245,-0.0233,-0.0242,-0.0244,-0.0272,-0.0272,-0.025,-0.0249,-0.0259,0,0,0,-0.0263,-0.027,-0.0259,-0.0258,-0.0245,-0.0226,-0.0237,-0.0237,-0.0245,-0.0243,-0.0272,-0.0271,-0.025,-0.0249,-0.0259,-0.031,-0.0312,0,0,-0.027,-0.0272,-0.0268,-0.0255,-0.0237,-0.0227,-0.0216,-0.0241,-0.025,-0.0269,-0.0269,-0.0249,-0.0249,-0.0259,-0.03,-0.0303,0,0,0,-0.0267,-0.0266,-0.0261,-0.0247,-0.0233,-0.0224,-0.0229,-0.0226,-0.0234,-0.0253,-0.0252,-0.0253,-0.026,-0.0291,-0.0294,-0.0271,-0.0271,-0.0271,-0.0271,-0.027,-0.0257,-0.0254,-0.0242,-0.0235,-0.0224,-0.0215,-0.0214,-0.0232,-0.0228,-0.0236,-0.0232,-0.0264,-0.0267,-0.0234,-0.0234,-0.0234,-0.0234,-0.0234,-0.0267,-0.027,-0.0254,-0.0251,-0.024,-0.0233,-0.021,-0.021,-0.0203,-0.021,-0.0218,-0.0268,-0.0268,-0.0232,-0.0233,-0.0233,-0.0233,-0.0233,-0.0233,-0.0272,-0.0281,-0.0274,-0.0271,-0.0265,-0.0253,-0.0268,-0.0234,-0.0197,-0.0192,-0.0258,-0.0259,-0.0228,-0.0213,-0.0213,-0.0213,-0.0213,-0.0213,-0.0213,-0.0295,-0.0291,-0.0304,-0.03,-0.0311,-0.0323,-0.0306,-0.0303,-0.0277,-0.0247,-0.0248,-0.0225,-0.0226,-0.0227,-0.0214,-0.0213,-0.0213,-0.0213,-0.0213,-0.0317,-0.032,-0.0342,-0.0359,-0.0401,-0.0477,-0.0444,-0.0447,-0.0403,-0.0393,-0.0278,-0.0277,-0.0295,-0.0294,-0.0298,-0.0303,-0.0303,-0.0303,-0.0303,-0.0335,-0.0336,-0.0385,-0.0436,-0.0501,-0.0556,-0.0672,-0.0612,-0.0468,-0.036,-0.0357,-0.0365,-0.0361,-0.0383,-0.038,-0.0385,-0.0413,-0.0413,-0.0414,-0.0344,-0.0362,-0.0406,-0.0467,-0.0557,-0.0674,-0.081,-0.0741,-0.0476,-0.0416,-0.0353,-0.0315,-0.032,-0.0316,-0.0345,-0.0342,-0.0349,0,0]}],[{"header":{"parameterUnit":"m.s-1","parameterCategory":2,"la1":30.2992,"la2":30.254,"lo1":-89.0895,"lo2":-89.0443,"dy":0.0025,"dx":0.0025,"nx":19,"ny":19,"refTime":"2026-03-18T03:00:00:Z","depth":"4","parameterNumber":2,"parameterNumberName":"U-component_of_CURRENTS"},"data":[0,0,0,-0.068,-0.0682,-0.076,-0.076,-0.085,-0.0851,0,0,0,0,0,0,0,0,0,0,0,-0.0663,-0.0663,-0.068,-0.0682,-0.076,-0.076,-0.085,-0.0851,0,0,0,0,0,0,0,0,0,0,0,-0.0662,-0.0663,-0.0664,-0.0682,-0.076,-0.076,-0.085,-0.0794,0,0,0,0,0,0,0,0,0,0,-0.072,-0.0699,-0.0663,-0.0664,-0.0683,-0.076,-0.076,-0.0792,-0.0798,-0.0811,0,-0.0832,0,-0.0839,-0.0856,-0.0857,0,0,0,-0.0685,-0.0694,-0.0719,-0.0664,-0.0683,-0.076,-0.0726,-0.0795,-0.0802,-0.0819,-0.0833,-0.0836,-0.084,-0.0857,-0.0857,-0.0975,-0.0975,0,0,-0.068,-0.0672,-0.0714,-0.0723,-0.0715,-0.0723,-0.0728,-0.0799,-0.0809,-0.0833,-0.0838,-0.0842,-0.0858,-0.0858,-0.0974,-0.0975,0,0,0,-0.0666,-0.0669,-0.0692,-0.072,-0.0732,-0.0725,-0.0731,-0.0805,-0.0815,-0.0839,-0.0843,-0.0858,-0.0859,-0.0973,-0.0974,-0.0989,0,0,0,-0.0664,-0.066,-0.069,-0.0685,-0.0731,-0.0769,-0.0735,-0.081,-0.0818,-0.0842,-0.0858,-0.086,-0.0972,-0.0974,-0.0987,-0.1035,0,0,0,-0.0657,-0.0659,-0.0672,-0.0684,-0.0716,-0.0768,-0.0782,-0.0812,-0.082,-0.0857,-0.086,-0.0972,-0.0973,-0.0985,-0.1031,-0.1093,0,0,0,-0.0638,-0.0665,-0.0673,-0.0709,-0.0716,-0.0769,-0.0782,-0.0823,-0.0854,-0.0858,-0.0973,-0.0974,-0.0985,-0.1029,-0.109,-0.0941,0,0,0,-0.0658,-0.0667,-0.069,-0.0698,-0.0768,-0.0758,-0.0824,-0.0868,-0.0885,-0.0947,-0.095,-0.0988,-0.1031,-0.1092,-0.1035,0,0,0,0,-0.0687,-0.0714,-0.0735,-0.0779,-0.0808,-0.0862,-0.088,-0.0898,-0.0962,-0.0912,-0.1016,-0.1044,-0.1082,-0.0987,-0.0982,-0.0982,-0.0981,-0.0981,-0.0981,-0.0696,-0.0732,-0.0784,-0.0841,-0.088,-0.0931,-0.0979,-0.1014,-0.0993,-0.1029,-0.1075,-0.1164,-0.1064,-0.1075,-0.1075,-0.1075,-0.1075,-0.1075,-0.1075,-0.0729,-0.0755,-0.0824,-0.089,-0.0953,-0.1006,-0.1081,-0.1088,-0.1171,-0.1126,-0.116,-0.1032,-0.1078,-0.1077,-0.1077,-0.1077,-0.1076,-0.1076,-0.1076,-0.0722,-0.0739,-0.0794,-0.0887,-0.098,-0.1051,-0.1138,-0.1185,-0.1223,-0.1266,-0.1175,-0.1209,-0.1188,-0.127,-0.127,-0.1271,-0.1271,-0.1272,-0.1272,-0.067,-0.0727,-0.0782,-0.0886,-0.0944,-0.1037,-0.1167,-0.1226,-0.1282,-0.1227,-0.1283,-0.1231,-0.1225,-0.1202,-0.1279,-0.1278,-0.1277,-0.1276,-0.1276,-0.0654,-0.0674,-0.0742,-0.0802,-0.0923,-0.0976,-0.1121,-0.1207,-0.1272,-0.128,-0.1209,-0.121,-0.1207,-0.1203,-0.1177,-0.1251,-0.1249,-0.1248,0,-0.0621,-0.0642,-0.0707,-0.0768,-0.0838,-0.0934,-0.0995,-0.109,-0.1162,-0.111,-0.1268,-0.1182,-0.1182,-0.1172,-0.1166,-0.1133,0,0,0,-0.0608,-0.0625,-0.0656,-0.0719,-0.0785,-0.0878,-0.1001,-0.1004,-0.114,-0.1177,-0.1208,-0.1219,-0.1259,-0.1302,-0.1302,-0.1294,-0.1258,0,0]},{"header":{"parameterUnit":"m.s-1","parameterCategory":2,"la1":30.2992,"la2":30.254,"lo1":-89.0895,"lo2":-89.0443,"dy":0.0025,"dx":0.0025,"nx":19,"ny":19,"refTime":"2026-03-18T03:00:00:Z","depth":"4","parameterNumber":3,"parameterNumberName":"V-component_of_CURRENTS"},"data":[0,0,0,0.0434,0.0435,0.0479,0.048,0.0554,0.0555,0,0,0,0,0,0,0,0,0,0,0,0.0427,0.0428,0.0434,0.0435,0.0479,0.048,0.0554,0.0555,0,0,0,0,0,0,0,0,0,0,0,0.0427,0.0428,0.0428,0.0435,0.0479,0.048,0.0554,0.0518,0,0,0,0,0,0,0,0,0,0,0.0473,0.0461,0.0428,0.0428,0.0435,0.0479,0.048,0.0516,0.052,0.0537,0,0.0547,0,0.0547,0.056,0.056,0,0,0,0.0442,0.0458,0.0468,0.0428,0.0436,0.0479,0.0461,0.0518,0.0523,0.0542,0.0548,0.055,0.0548,0.056,0.056,0.0592,0.0592,0,0,0.0439,0.0438,0.0465,0.0471,0.0452,0.046,0.0463,0.0521,0.0529,0.0548,0.0552,0.0549,0.056,0.0561,0.0592,0.0592,0,0,0,0.0428,0.0436,0.0445,0.0468,0.0472,0.0461,0.0464,0.0527,0.0529,0.0553,0.055,0.0561,0.0562,0.0592,0.0592,0.0487,0,0,0,0.0427,0.0429,0.0444,0.0444,0.047,0.0497,0.0469,0.0526,0.0532,0.055,0.0561,0.0562,0.0592,0.0592,0.0491,0.0403,0,0,0,0.0425,0.0429,0.0435,0.0443,0.0458,0.0496,0.0502,0.0527,0.053,0.056,0.0563,0.0592,0.0592,0.0494,0.041,0.0366,0,0,0,0.042,0.0413,0.0435,0.0425,0.0458,0.0464,0.0501,0.052,0.0543,0.0561,0.0592,0.0592,0.0495,0.0415,0.037,0.0345,0,0,0,0.04,0.0411,0.0401,0.0421,0.0392,0.0458,0.0439,0.0489,0.0542,0.0576,0.0577,0.049,0.0411,0.0367,0.032,0,0,0,0,0.0386,0.0369,0.037,0.036,0.0385,0.0373,0.0442,0.0462,0.0488,0.0552,0.051,0.0463,0.0439,0.0438,0.059,0.059,0.059,0.059,0.059,0.0323,0.0324,0.029,0.0289,0.0294,0.0326,0.0317,0.0358,0.0446,0.044,0.0395,0.0306,0.0305,0.0438,0.0438,0.0437,0.0437,0.0436,0.0436,0.0246,0.0217,0.0209,0.0173,0.0174,0.0168,0.0189,0.0229,0.0226,0.0313,0.0297,0.0349,0.0426,0.0428,0.043,0.0431,0.0432,0.0432,0.0433,0.0183,0.0172,0.015,0.0093,0.0041,0.0057,-0.0006,0.0041,0.0102,0.0074,0.0124,0.0228,0.0218,0.0101,0.01,0.01,0.0099,0.0099,0.0098,0.0141,0.0119,0.006,0.0008,-0.0039,-0.0093,-0.0109,-0.0117,-0.0052,-0.0029,0.0055,0.0193,0.0204,0.02,0.0089,0.0091,0.0092,0.0093,0.0093,0.0068,0.0068,-0.0018,-0.0073,-0.0176,-0.0214,-0.0222,-0.0228,-0.0244,-0.0228,-0.007,-0.006,-0.003,-0.0014,-0.0025,-0.0206,-0.0207,-0.0208,0,0.0022,0.0016,-0.0094,-0.0186,-0.0282,-0.0293,-0.0342,-0.0335,-0.0271,-0.0266,-0.0229,-0.0052,-0.0043,-0.0005,0.0008,-0.0003,0,0,0,-0.0039,-0.0054,-0.0147,-0.0221,-0.033,-0.0359,-0.0359,-0.0361,-0.0272,-0.0295,-0.0228,-0.0223,-0.0033,0.0062,0.0132,0.0146,0.0142,0,0]}]]